Location: Jabiru
(12.6667°S, 132.8333°E)
Time: 00:13:36
(UTC+09:30)

Envisat - Visible Passes

Search period start: 22 October 2019 00:00
Search period end: 01 November 2019 00:00
Orbit: 764 x 766 km, 98.1° (Epoch: 21 October)

Date Brightness Start Highest point End Pass type
(mag) Time Alt. Az. Time Alt. Az. Time Alt. Az.
22 Oct 3.4 18:50:25 10° SSE 18:55:11 40° E 18:59:54 10° N visible
22 Oct 6.2 20:31:39 10° SW 20:33:48 13° WSW 20:35:56 10° W visible
23 Oct 4.7 19:52:41 10° SSW 19:57:17 35° WSW 20:01:51 10° NW visible
24 Oct 3.0 19:15:32 10° SSE 19:20:39 84° ENE 19:25:43 10° N visible
25 Oct 5.8 20:19:21 10° SW 20:22:37 17° WSW 20:25:53 10° WNW visible
26 Oct 4.1 19:41:11 10° S 19:46:04 47° WSW 19:50:55 10° NNW visible
27 Oct 3.0 19:04:22 10° SSE 19:09:24 62° ENE 19:14:24 10° N visible
28 Oct 5.4 20:07:27 10° SSW 20:11:25 23° WSW 20:15:23 10° NW visible
29 Oct 3.5 19:29:47 10° S 19:34:50 64° WSW 19:39:51 10° NNW visible
30 Oct 3.3 18:53:17 10° SSE 18:58:09 45° E 19:02:58 10° N visible
30 Oct 6.3 20:35:20 10° WSW 20:36:44 11° WSW 20:38:08 10° W visible
31 Oct 4.9 19:55:46 10° SSW 20:00:13 31° WSW 20:04:39 10° NW visible
